Lapse_Rate
6.3 6.2 6.0 6.0 6.1 6.1 6.1 6.0 6.0 6.0 6.0 6.2 6.3 6.3 6.4 6.3 6.0 6.0 6.1 5.8 5.9 6.0 6.1 6.0 6.0 6.0 6.1 5.9 5.7 5.9 5.7 5.6 5.9 5.9 5.4 5.3 5.7 5.8 5.7 5.8 5.5 5.6 5.6
6.3 6.5 6.4 6.1 6.2 6.3 6.2 6.2 6.2 6.1 6.1 6.0 6.1 6.2 6.4 6.3 6.1 5.9 6.1 5.9 5.9 6.0 6.0 5.9 6.1 6.1 6.1 6.0 5.8 5.8 5.9 5.8 5.7 5.8 5.8 5.2 5.0 5.2 5.3 5.8 6.0 5.7 5.7
6.5 6.6 6.5 6.5 6.6 6.5 6.5 6.3 6.3 6.2 6.2 6.3 6.1 6.1 5.9 6.0 6.0 6.0 5.9 5.9 5.8 5.9 6.2 6.3 6.1 6.0 6.0 5.8 5.8 6.2 6.0 5.8 5.6 5.6 5.9 5.5 5.2 5.0 5.1 5.5 5.8 5.8 5.6
6.9 7.0 6.7 6.8 7.0 6.9 6.7 6.8 6.7 6.6 6.5 6.5 6.5 6.5 6.5 6.3 6.4 6.3 6.2 6.1 6.2 6.2 6.1 5.9 5.9 5.9 6.0 6.3 6.1 6.1 6.0 5.9 5.6 5.5 5.5 5.7 5.5 5.3 5.1 5.6 5.7 5.8 5.7
7.5 7.2 6.9 6.7 6.9 6.8 6.8 6.8 6.8 6.7 6.7 6.7 6.7 6.5 6.4 6.4 6.5 6.6 6.4 6.3 6.2 6.0 5.9 5.9 6.0 6.2 6.1 5.9 5.7 5.8 5.7 5.7 5.7 5.6 5.7 5.7 5.8 5.7 5.4 5.3 5.7 5.9 5.5
7.7 7.5 7.2 7.1 6.9 6.8 6.8 7.0 6.9 7.0 6.9 6.6 6.6 6.5 6.5 6.5 6.6 6.4 6.3 6.3 6.3 6.2 6.3 6.3 6.3 6.1 6.0 5.9 5.8 5.6 5.6 5.5 5.6 5.6 5.5 5.6 5.8 5.5 5.6 5.2 5.5 5.6 5.5
7.9 7.6 7.5 7.3 7.2 7.1 7.0 6.9 7.0 7.0 6.8 6.8 6.8 6.6 6.5 6.4 6.5 6.5 6.4 6.6 6.6 6.5 6.5 6.1 6.2 6.1 5.9 5.8 5.6 5.4 5.5 5.5 5.4 5.5 5.3 5.4 5.1 5.3 5.5 5.2 5.2 5.3 5.4
8.0 7.9 7.8 7.7 7.4 7.3 7.1 7.1 7.0 6.9 6.9 6.6 6.5 6.5 6.2 6.5 6.6 6.2 6.3 6.5 6.6 6.4 6.3 6.0 6.1 6.1 5.8 5.7 5.7 5.7 5.6 5.6 5.4 5.1 5.0 5.2 5.3 5.4 5.3 5.3 5.0 5.2 5.4
8.3 8.1 8.0 7.9 7.7 7.4 7.2 7.1 7.1 7.0 6.8 6.7 6.4 6.2 6.3 6.2 6.2 6.1 6.2 6.6 6.4 6.1 5.9 6.0 6.0 5.8 5.9 5.9 5.9 5.8 5.8 5.7 5.3 5.2 5.2 5.2 5.3 5.4 5.3 5.0 5.0 4.7 5.1
8.5 8.3 8.1 8.0 7.9 7.6 7.5 7.3 7.2 7.1 6.9 6.4 6.3 6.2 5.9 6.2 5.8 6.2 6.1 6.1 6.0 5.8 5.9 6.0 6.1 5.9 6.1 6.1 6.1 6.1 6.1 6.0 5.8 5.6 5.5 5.3 5.3 5.3 5.2 5.1 5.0 5.2 5.3
8.7 8.6 8.4 8.2 8.1 8.0 7.8 7.5 7.3 7.1 6.9 6.8 6.8 6.6 6.4 6.5 6.3 6.3 6.4 6.2 5.9 5.9 6.2 6.3 6.2 6.1 6.3 6.4 6.4 6.3 6.2 6.0 5.8 5.6 5.5 5.4 5.2 4.9 5.1 5.1 5.1 5.3 5.5
8.8 8.5 8.4 8.4 8.1 7.9 7.7 7.5 7.3 6.9 6.7 6.5 6.3 6.0 5.9 5.9 6.1 6.3 6.0 6.0 6.1 6.1 6.2 6.5 6.4 6.4 6.3 6.1 5.7 5.4 5.1 5.1 5.1 4.9 4.9 4.8 4.7 4.7 4.8 5.3 5.4 5.3 5.3
8.7 8.5 8.5 8.2 8.1 8.0 7.8 7.5 7.7 7.1 6.3 5.5 5.5 5.6 5.7 5.9 6.0 6.1 6.1 6.3 6.3 6.2 6.4 6.6 6.5 6.2 5.5 5.0 4.8 4.9 4.8 4.9 4.9 5.0 4.9 4.8 4.9 5.0 5.0 4.9 4.8 4.8 5.0
8.5 8.3 8.1 8.1 8.1 8.0 7.8 7.6 7.4 7.0 6.1 5.5 5.0 5.4 5.5 5.4 5.6 5.9 6.4 6.5 6.3 6.4 6.6 6.6 6.2 5.4 4.9 4.7 4.9 5.0 5.1 5.1 4.9 4.7 4.5 4.5 4.5 4.5 4.4 4.3 4.5 4.8 5.0
8.0 7.9 8.0 8.0 8.2 7.9 7.6 7.4 7.3 7.1 6.0 5.2 4.7 5.0 5.0 5.0 5.5 5.9 6.1 6.6 6.7 6.8 6.5 6.1 5.4 4.9 4.7 4.9 5.1 5.2 5.2 5.0 4.8 4.4 4.2 4.1 4.1 3.8 4.3 4.3 4.5 4.9 5.1
7.9 7.9 7.9 8.0 7.9 7.5 7.4 7.2 6.9 6.7 6.8 5.7 5.2 5.3 5.1 4.7 4.9 5.4 6.5 6.9 6.7 6.6 6.1 5.6 5.1 4.9 4.9 4.8 4.8 4.9 5.0 4.7 4.6 4.4 3.9 4.2 3.6 3.8 4.1 4.2 4.6 4.7 5.1
8.0 7.9 7.8 7.8 7.6 7.4 7.3 6.9 6.6 6.2 5.8 5.7 5.5 4.8 4.1 4.8 5.3 5.8 6.4 6.4 6.6 6.6 5.9 5.1 5.0 4.8 4.8 4.6 4.5 4.4 3.7 3.2 3.9 3.8 3.7 3.9 3.2 3.9 4.3 4.6 4.7 4.9 5.1
7.8 7.7 7.7 7.7 7.6 7.4 7.1 6.6 6.2 6.0 5.6 5.5 5.5 5.3 5.5 5.8 6.1 6.2 6.5 6.4 6.5 6.4 6.1 5.9 5.3 4.8 4.7 4.6 4.4 3.9 4.1 4.0 3.5 3.3 3.9 3.8 3.9 4.2 4.5 4.7 5.1 5.3 5.6
7.2 7.2 7.4 7.5 7.4 7.2 6.8 6.5 6.1 6.1 5.6 5.4 5.5 5.4 5.4 5.6 5.7 5.8 6.2 6.2 6.4 6.3 6.3 6.1 5.9 5.5 5.1 4.6 4.5 4.4 4.3 4.2 3.9 4.0 4.2 4.1 4.1 4.6 4.7 4.8 5.1 5.2 5.0
7.0 6.8 6.9 7.1 7.0 6.9 6.7 6.4 6.1 6.1 5.7 5.5 5.5 5.6 5.6 5.7 5.9 6.0 6.1 6.1 6.1 6.5 6.2 6.0 6.1 6.0 5.8 5.6 4.8 4.6 4.6 4.4 4.5 4.5 4.6 4.8 4.3 4.0 4.5 4.8 4.8 4.9 4.8
6.7 6.3 6.6 6.8 6.8 6.7 6.4 6.3 6.0 5.9 5.7 5.4 5.6 5.8 5.6 5.7 5.8 5.8 5.8 6.1 6.2 6.0 6.1 6.1 6.1 6.2 6.1 6.1 5.8 5.4 5.0 4.8 4.8 4.8 4.7 4.7 4.7 4.8 5.2 5.3 5.4 5.5 5.5
6.8 6.5 6.8 7.2 7.0 6.8 6.5 6.2 6.0 5.8 5.7 5.9 5.9 5.7 5.6 5.5 5.5 5.9 5.9 5.8 5.8 6.0 6.1 6.3 6.3 6.3 6.4 6.2 6.1 6.0 5.8 5.7 5.8 5.7 5.5 5.3 5.2 5.3 5.5 5.7 5.8 5.8 5.8
7.0 6.9 6.7 7.3 7.2 7.0 6.5 6.1 6.1 5.9 5.8 5.7 5.7 5.6 5.4 5.3 5.4 5.7 5.9 6.0 6.1 6.0 6.1 6.5 6.6 6.5 6.4 6.4 6.2 6.1 5.9 5.9 5.6 5.6 5.6 5.5 5.5 5.4 5.5 5.7 5.8 5.6 5.5
6.8 6.7 6.7 6.9 7.1 6.8 6.4 6.0 5.8 5.7 5.7 5.7 5.7 5.5 5.3 5.1 5.2 5.6 6.0 6.2 6.3 6.3 6.1 6.2 6.4 6.6 6.5 6.4 6.2 6.1 5.9 5.7 5.6 5.5 5.4 5.4 5.6 5.7 5.6 5.4 5.2 5.5 5.6
6.5 6.3 6.2 6.6 6.8 6.9 6.3 5.9 5.4 5.5 5.6 5.5 5.4 5.4 5.4 5.5 5.5 5.7 6.0 6.2 6.3 6.3 6.2 6.2 6.4 6.5 6.6 6.8 6.7 6.4 6.2 6.0 6.0 6.0 6.1 5.9 5.7 5.6 5.5 5.5 5.5 5.5 5.1
6.1 5.9 5.9 6.4 6.3 6.3 6.3 5.8 5.4 5.1 5.2 4.9 5.0 4.9 5.0 5.3 5.4 5.4 5.8 6.1 6.3 6.3 6.1 6.0 6.1 6.2 6.3 6.5 6.4 6.2 6.3 6.2 6.2 6.0 6.0 5.9 5.8 5.7 5.7 5.6 5.6 5.7 5.6
Wind_Speed
15 14 12 11 9 9 6 7 7 5 6 7 7 7 7 7 7 6 7 6 6 5 6 6 7 5 4 4 2 2 2 3 4 4 3 3 2 5 9 13 14 16 16
16 14 14 12 10 11 10 7 7 8 6 6 7 7 7 6 6 6 7 6 7 7 7 7 7 5 6 4 3 5 3 4 4 5 3 3 6 7 6 6 6 10 14
15 13 14 12 14 14 13 12 7 7 8 7 6 7 7 7 7 6 6 7 7 7 7 7 7 7 7 5 5 5 3 2 3 3 4 2 3 3 4 4 5 4 9
16 15 15 15 15 14 12 11 11 8 7 8 7 8 7 7 7 7 7 7 7 8 9 8 7 7 7 6 6 6 5 5 4 4 4 4 3 4 3 4 2 2 2
16 16 15 15 13 13 10 12 12 11 11 10 9 7 7 7 7 7 6 6 7 8 8 8 8 8 11 9 6 6 6 5 4 4 5 2 3 3 4 2 5 3 1
16 16 15 14 13 13 13 11 13 13 10 10 11 10 7 4 9 9 7 3 4 6 8 7 7 9 9 10 10 12 8 7 9 6 7 6 9 5 3 3 1 2 2
15 14 15 13 14 14 12 12 11 13 12 11 12 9 9 7 11 9 7 2 2 4 5 5 5 5 6 5 7 7 5 9 12 9 10 9 9 8 4 4 5 4 5
11 14 12 14 14 11 8 9 10 7 11 9 9 9 5 4 10 5 4 3 3 5 6 6 6 7 7 8 7 7 7 6 5 3 5 9 9 10 6 6 5 4 3
11 9 10 12 10 8 8 8 6 6 7 10 8 5 8 6 7 6 5 3 1 4 5 6 6 6 8 8 5 6 7 6 6 12 14 11 11 14 12 2 4 3 4
7 8 8 8 10 10 9 10 7 6 6 3 4 4 6 8 8 7 5 3 2 4 5 6 9 9 3 4 3 4 6 5 5 5 5 6 8 7 10 7 5 6 2
6 6 6 4 6 5 5 3 4 4 6 5 5 6 6 10 10 8 7 3 0 3 3 4 4 10 8 5 4 4 6 5 8 5 7 7 5 5 5 6 6 6 4
9 10 8 8 7 6 9 6 7 6 3 2 5 5 4 5 11 9 7 3 3 3 4 4 5 9 11 12 9 12 11 9 6 6 6 6 5 6 3 2 5 4 2
10 10 9 8 7 6 7 7 5 5 0 4 4 2 4 5 4 7 5 4 5 3 3 5 11 11 12 9 11 7 5 3 4 6 5 5 4 3 5 4 8 12 12
12 10 9 9 8 7 5 5 5 5 3 3 3 6 6 4 4 3 0 2 4 4 5 5 7 9 11 8 6 5 3 4 4 4 4 4 2 2 3 4 6 6 7
8 9 9 7 7 6 6 4 6 3 4 3 5 2 5 4 2 3 3 2 3 3 4 3 3 3 4 5 5 3 3 3 3 4 4 3 2 3 4 5 5 3 4
7 7 7 7 6 5 5 5 11 6 7 14 12 4 3 4 6 7 5 3 4 7 1 2 3 4 4 4 4 4 4 4 2 2 2 2 5 4 5 5 5 6 7
8 8 7 8 7 7 4 5 5 3 7 5 3 9 9 10 9 9 0 6 6 4 3 2 3 4 4 5 4 4 4 4 4 4 5 5 6 5 6 6 5 7 7
7 11 8 7 7 6 5 5 5 5 4 3 6 7 12 11 9 4 1 2 3 1 1 2 3 3 3 4 4 4 4 3 3 4 5 4 5 5 6 6 6 7 7
8 7 6 6 7 7 6 5 5 5 5 4 3 2 8 11 6 7 6 3 3 2 2 2 1 1 2 2 3 3 3 3 3 4 4 5 4 5 6 5 6 7 7
8 9 6 6 6 6 6 7 5 6 5 5 5 7 2 3 2 2 4 5 4 3 4 4 3 3 2 3 3 3 3 2 3 3 4 4 4 5 6 6 5 5 4
8 6 9 5 8 7 7 7 7 7 7 6 8 7 10 5 5 4 5 5 5 5 5 4 4 4 3 3 3 2 2 2 3 3 3 4 4 4 4 4 5 5 5
9 10 8 6 7 7 6 6 6 7 8 8 6 5 14 5 5 3 5 5 5 6 5 5 4 5 5 5 5 4 4 2 1 4 5 4 4 4 3 3 4 4 4
8 11 11 8 6 11 6 6 5 6 5 5 6 6 5 5 4 4 5 5 5 4 4 5 5 5 4 7 8 5 5 4 5 5 5 5 5 4 4 4 4 4 4
12 12 9 9 5 8 6 6 5 7 6 6 6 6 6 5 6 6 5 5 5 5 5 3 2 7 6 6 9 12 11 14 12 8 7 6 6 7 6 4 5 8 7
3 8 8 9 6 8 7 6 6 5 6 5 5 7 7 7 6 6 6 6 6 6 6 5 5 7 8 9 10 14 12 15 13 8 6 2 3 7 5 4 6 9 10
5 3 5 8 7 6 6 7 6 6 5 5 5 5 6 7 7 6 6 6 6 6 7 6 7 12 13 10 13 14 14 12 8 7 5 2 3 3 3 4 4 4 7
Wind_Direction
179 184 192 197 196 212 209 211 214 213 203 178 187 192 207 221 225 216 220 220 243 267 269 259 262 254 259 275 270 208 278 157 211 288 243 232 174 207 185 220 192 188 203
180 183 190 192 201 204 220 220 211 205 210 199 187 190 199 208 214 206 210 210 220 247 255 251 255 264 266 256 257 270 224 260 212 271 269 237 214 231 202 196 176 181 186
176 180 189 190 197 208 212 218 214 206 207 209 208 209 207 211 220 225 219 225 229 236 247 249 252 248 254 244 236 247 246 249 242 236 274 254 268 242 230 214 189 180 189
178 183 189 199 199 205 208 206 214 211 201 202 208 210 205 206 210 217 221 225 224 231 233 237 243 239 243 241 244 241 237 239 241 254 257 254 229 253 206 210 202 149 160
180 186 193 199 200 203 203 199 206 209 214 206 209 215 209 213 220 221 229 238 232 240 235 231 240 241 241 235 238 247 230 240 234 239 258 231 245 279 251 251 234 131 134
182 188 193 191 197 199 207 209 204 211 207 201 208 213 211 204 131 140 158 221 282 275 252 239 239 257 260 247 248 249 238 238 248 243 253 243 256 240 201 215 181 167 178
183 187 188 187 195 203 200 204 201 207 207 200 207 198 201 150 184 168 164 183 294 317 315 315 312 298 324 325 315 314 293 253 243 259 261 252 257 242 212 215 202 173 197
174 188 183 189 197 195 186 199 207 195 204 203 203 202 173 146 154 158 110 65 3 318 304 300 292 290 282 277 278 276 270 267 277 275 229 262 274 271 224 238 213 186 144
178 171 173 181 179 186 196 199 200 193 201 206 210 181 125 159 184 160 119 90 355 310 311 319 313 308 304 326 312 288 277 272 274 277 280 286 302 305 284 258 236 175 189
171 167 163 165 179 191 190 203 215 218 226 174 78 59 119 137 202 193 127 95 7 335 339 326 313 310 151 18 338 307 301 287 310 323 320 311 297 289 262 226 236 225 180
137 137 121 133 124 132 90 57 79 72 93 107 130 140 146 155 189 181 107 91 227 279 275 275 273 296 282 252 233 241 255 271 289 286 286 281 270 269 282 240 216 222 185
96 98 96 97 97 98 103 98 99 102 91 169 153 179 165 135 132 138 153 151 248 253 266 268 279 285 292 283 265 263 251 262 274 273 266 268 254 256 249 151 106 84 18
100 102 109 106 102 99 105 99 89 61 283 165 170 133 105 83 110 145 149 238 256 285 294 293 301 292 287 279 264 272 286 238 249 257 258 260 266 235 138 130 91 83 65
123 120 117 112 105 90 85 85 94 79 64 327 324 98 104 120 92 69 17 310 322 345 331 308 286 281 275 266 289 271 235 233 228 247 265 270 189 167 149 129 103 99 96
130 128 122 122 115 100 70 89 108 89 123 105 73 39 93 87 95 200 223 307 321 305 315 288 343 352 349 344 339 282 254 237 233 238 255 273 138 103 95 103 97 70 90
147 135 133 124 118 107 112 89 40 50 127 129 134 116 92 107 163 224 221 288 350 345 3 344 1 356 346 340 352 344 354 328 227 202 114 73 84 77 94 80 81 104 107
171 145 136 138 137 139 135 138 135 29 32 39 140 160 178 165 215 239 272 342 311 312 61 352 360 358 350 1 1 357 7 11 32 79 93 90 94 88 88 93 100 109 109
150 144 147 149 148 148 153 157 146 153 169 215 249 229 233 223 219 230 275 320 316 115 157 55 16 356 5 10 6 4 4 20 52 87 96 106 101 112 110 110 115 118 123
161 162 163 147 148 153 152 159 165 167 172 183 191 232 248 254 234 169 171 211 195 168 118 90 82 13 41 38 27 31 29 30 42 78 84 97 107 110 105 111 113 118 116
146 158 161 150 151 153 162 173 174 178 172 191 197 216 224 170 256 238 191 194 193 162 164 166 165 152 122 88 67 51 71 74 86 77 78 80 94 107 113 118 112 107 103
149 165 187 161 163 167 179 194 186 182 187 194 214 210 196 187 219 216 201 161 174 179 178 174 172 166 153 120 114 115 106 95 99 114 112 105 112 111 121 128 127 130 127
165 182 186 173 174 176 186 197 197 191 198 187 204 208 191 195 206 192 180 179 168 179 183 173 171 171 163 162 168 161 176 203 188 133 121 127 122 126 135 134 132 135 132
196 207 182 174 168 178 182 194 194 187 188 194 165 168 186 199 213 213 203 181 172 174 187 172 175 169 176 178 192 190 191 172 166 156 149 159 150 158 172 171 166 162 173
203 207 172 179 154 174 175 188 194 193 191 199 161 175 187 201 213 208 198 183 171 174 180 182 187 178 178 192 199 206 199 185 183 186 182 182 185 195 191 185 200 199 200
207 191 172 184 167 173 174 182 197 202 189 188 180 181 190 199 210 210 185 180 175 171 187 186 178 166 179 180 180 195 190 191 170 173 165 155 228 220 199 188 179 197 197
197 148 181 185 176 171 165 181 188 205 194 186 192 186 191 192 195 189 187 178 180 187 188 194 196 194 194 193 159 163 160 158 149 144 138 110 40 299 227 214 246 184 172